,,Stat6,,Stat2,,Stat8,,Stat9,,Stat10,,Wind1,,Wind1,
time,status,PA1M_AVG,status,PR1M_SUM,status,RH1M_AVG,status,SR1M_AVG,status,TA1M_AVG,status,W1dAve1m,status,W1sAve1m,
2009-02-23, 00:00:01,VALID,916.734,VALID,0,VALID,100,VALID,0.0169808,VALID,20.2804,VALID,359,VALID,0,
2009-02-23, 00:01:01,VALID,916.749,VALID,0,VALID,100,VALID,0.0169808,VALID,20.2836,VALID,359,VALID,0,
2009-02-23, 00:02:00,VALID,916.75,VALID,0,VALID,100,VALID,0.0339617,VALID,20.3169,VALID,359,VALID,0,
2009-02-23, 00:03:00,VALID,916.751,VALID,0,VALID,100,VALID,0.0169808,VALID,20.3228,VALID,359,VALID,0,
2009-02-23, 00:04:00,VALID,916.757,VALID,0,VALID,100,VALID,0.0679233,VALID,20.3356,VALID,359,VALID,0,
2009-02-23, 00:05:00,VALID,916.774,VALID,0,VALID,100,VALID,0.0169808,VALID,20.3353,VALID,359,VALID,0,
2009-02-23, 00:06:00,VALID,916.781,VALID,0,VALID,100,VALID,0.0169808,VALID,20.3588,VALID,359,VALID,0,
2009-02-23, 00:07:00,VALID,916.783,VALID,0,VALID,100,VALID,0.0339617,VALID,20.355,VALID,359,VALID,0,
2009-02-23, 00:08:00,VALID,916.793,VALID,0,VALID,100,VALID,-0.0679233,VALID,20.3725,VALID,359,VALID,0,
2009-02-23, 00:09:00,VALID,916.788,VALID,0,VALID,100,VALID,-0.0679233,VALID,20.3758,VALID,359,VALID,0,
2009-02-23, 00:10:00,VALID,916.789,VALID,0,VALID,100,VALID,-0.101885,VALID,20.3953,VALID,359,VALID,0,
2009-02-23, 00:11:00,VALID,916.803,VALID,0,VALID,100,VALID,-0.0849042,VALID,20.4053,VALID,359,VALID,0,
2009-02-23, 00:12:00,VALID,916.795,VALID,0,VALID,100,VALID,-0.0679233,VALID,20.4147,VALID,360,VALID,0,
2009-02-23, 00:13:00,VALID,916.788,VALID,0,VALID,100,VALID,-0.0679233,VALID,20.4117,VALID,8,VALID,0,
2009-02-23, 00:14:00,VALID,916.764,VALID,0,VALID,100,VALID,-0.0849042,VALID,20.3985,VALID,16,VALID,0,
2009-02-23, 00:15:00,VALID,916.76,VALID,0,VALID,100,VALID,-0.0339617,VALID,20.3693,VALID,16,VALID,0,
2009-02-23, 00:16:00,VALID,916.755,VALID,0,VALID,100,VALID,-0.0339617,VALID,20.3531,VALID,16,VALID,0,
2009-02-23, 00:17:00,VALID,916.74,VALID,0,VALID,100,VALID,-0.0339617,VALID,20.3333,VALID,16,VALID,0,
2009-02-23, 00:18:00,VALID,916.731,VALID,0,VALID,100,VALID,-0.0509425,VALID,20.3301,VALID,12,VALID,0,
2009-02-23, 00:19:00,VALID,916.732,VALID,0,VALID,100,VALID,-0.0339617,VALID,20.3401,VALID,347,VALID,0,
2009-02-23, 00:20:00,VALID,916.721,VALID,0,VALID,100,VALID,-0.0339617,VALID,20.3363,VALID,6,VALID,0,
2009-02-23, 00:21:00,VALID,916.719,VALID,0,VALID,100,VALID,-0.0339617,VALID,20.3433,VALID,10,VALID,0,
2009-02-23, 00:22:00,VALID,916.702,VALID,0,VALID,100,VALID,-0.0169808,VALID,20.3401,VALID,349,VALID,0.329241,
2009-02-23, 00:23:00,VALID,916.679,VALID,0,VALID,100,VALID,-0.0509425,VALID,20.3333,VALID,1,VALID,0.0476017,
2009-02-23, 00:24:00,VALID,916.657,VALID,0,VALID,100,VALID,-0.0509425,VALID,20.3401,VALID,29,VALID,0.125545,
2009-02-23, 00:25:00,VALID,916.634,VALID,0,VALID,100,VALID,-0.0509425,VALID,20.3269,VALID,28,VALID,0,
2009-02-23, 00:26:00,VALID,916.606,VALID,0,VALID,100,VALID,-0.0509425,VALID,20.3368,VALID,3,VALID,0,
2009-02-23, 00:27:00,VALID,916.563,VALID,0,VALID,100,VALID,-0.0679233,VALID,20.3596,VALID,358,VALID,0,
2009-02-23, 00:28:00,VALID,916.515,VALID,0,VALID,100,VALID,-0.0509425,VALID,20.369,VALID,358,VALID,0,
2009-02-23, 00:29:00,VALID,916.487,VALID,0,VALID,100,VALID,-0.0679233,VALID,20.3923,VALID,357,VALID,0,
2009-02-23, 00:30:00,VALID,916.483,VALID,0,VALID,100,VALID,-0.0679233,VALID,20.4018,VALID,357,VALID,0,
2009-02-23, 00:31:00,VALID,916.501,VALID,0,VALID,100,VALID,-0.0849042,VALID,20.3923,VALID,357,VALID,0,
2009-02-23, 00:32:00,VALID,916.512,VALID,0,VALID,100,VALID,-0.0849042,VALID,20.379,VALID,357,VALID,0,
2009-02-23, 00:33:00,VALID,916.513,VALID,0,VALID,100,VALID,-0.0679233,VALID,20.3985,VALID,357,VALID,0,
2009-02-23, 00:34:00,VALID,916.51,VALID,0,VALID,100,VALID,-0.101885,VALID,20.4155,VALID,357,VALID,0,
2009-02-23, 00:35:00,VALID,916.487,VALID,0,VALID,100,VALID,-0.0849042,VALID,20.418,VALID,357,VALID,0,
2009-02-23, 00:36:00,VALID,916.479,VALID,0,VALID,100,VALID,-0.0849042,VALID,20.4375,VALID,357,VALID,0,
2009-02-23, 00:37:00,VALID,916.439,VALID,0,VALID,100,VALID,-0.0849042,VALID,20.4404,VALID,353,VALID,0,
2009-02-23, 00:38:00,VALID,916.432,VALID,0,VALID,100,VALID,-0.0679233,VALID,20.4569,VALID,250,VALID,0.00078125,
2009-02-23, 00:39:00,VALID,916.42,VALID,0,VALID,100,VALID,-0.118866,VALID,20.4347,VALID,233,VALID,0.000726744,
2009-02-23, 00:40:00,VALID,916.414,VALID,0.2,VALID,100,VALID,-0.0339617,VALID,20.4112,VALID,239,VALID,0.0266426,
2009-02-23, 00:41:00,VALID,916.384,VALID,0,VALID,100,VALID,-0.0509425,VALID,20.3823,VALID,241,VALID,0.414435,
2009-02-23, 00:42:00,VALID,916.378,VALID,0,VALID,100,VALID,-0.0849042,VALID,20.3466,VALID,238,VALID,0,
2009-02-23, 00:43:00,VALID,916.353,VALID,0,VALID,100,VALID,-0.101885,VALID,20.3241,VALID,203,VALID,0.0748546,
2009-02-23, 00:44:00,VALID,916.338,VALID,0,VALID,100,VALID,-0.101885,VALID,20.2784,VALID,207,VALID,0.237393,
2009-02-23, 00:45:00,VALID,916.332,VALID,0,VALID,100,VALID,-0.0509425,VALID,20.2587,VALID,255,VALID,0.353237,
2009-02-23, 00:46:00,VALID,916.343,VALID,0,VALID,100,VALID,-0.0509425,VALID,20.194,VALID,264,VALID,0.0328947,
2009-02-23, 00:47:00,VALID,916.34,VALID,0,VALID,100,VALID,-0.0849042,VALID,20.1519,VALID,258,VALID,0.195112,
2009-02-23, 00:48:00,VALID,916.327,VALID,0.2,VALID,100,VALID,-0.0169808,VALID,20.1029,VALID,285,VALID,0.0213068,
2009-02-23, 00:49:00,VALID,916.308,VALID,0,VALID,100,VALID,-0.0849042,VALID,20.0732,VALID,253,VALID,0.113917,
2009-02-23, 00:50:00,VALID,916.298,VALID,0,VALID,100,VALID,-0.0169808,VALID,20.0413,VALID,271,VALID,0.029154,
2009-02-23, 00:51:00,VALID,916.277,VALID,0,VALID,100,VALID,-0.0339617,VALID,20.0156,VALID,237,VALID,0.0681818,
2009-02-23, 00:52:00,VALID,916.246,VALID,0,VALID,100,VALID,-0.0509425,VALID,20.0348,VALID,304,VALID,0,
2009-02-23, 00:53:00,VALID,916.239,VALID,0,VALID,100,VALID,-0.0339617,VALID,20.0378,VALID,265,VALID,0,
2009-02-23, 00:54:00,VALID,916.223,VALID,0,VALID,100,VALID,-0.0509425,VALID,20.0443,VALID,329,VALID,0,
2009-02-23, 00:55:00,VALID,916.201,VALID,0,VALID,100,VALID,-0.101885,VALID,20.0248,VALID,60,VALID,0,
2009-02-23, 00:56:00,VALID,916.187,VALID,0,VALID,100,VALID,-0.0849042,VALID,20.035,VALID,62,VALID,0.00133384,
2009-02-23, 00:57:00,VALID,916.165,VALID,0,VALID,100,VALID,-0.0509425,VALID,19.9928,VALID,80,VALID,0,
2009-02-23, 00:58:00,VALID,916.148,VALID,0,VALID,100,VALID,-0.0679233,VALID,20.0026,VALID,103,VALID,0.00872093,
2009-02-23, 00:59:00,VALID,916.139,VALID,0,VALID,100,VALID,-0.0679233,VALID,19.9764,VALID,200,VALID,0.15625,
2009-02-23, 01:00:00,VALID,916.139,VALID,0,VALID,100,VALID,-0.0339617,VALID,19.9012,VALID,247,VALID,0,
2009-02-23, 01:01:00,VALID,916.133,VALID,0,VALID,100,VALID,-0.0509425,VALID,19.8366,VALID,259,VALID,0.0325838,
2009-02-23, 01:02:00,VALID,916.123,VALID,0,VALID,100,VALID,-0.0339617,VALID,19.8234,VALID,256,VALID,0,
2009-02-23, 01:03:00,VALID,916.138,VALID,0,VALID,100,VALID,-0.0509425,VALID,19.8071,VALID,263,VALID,0.00138889,
2009-02-23, 01:04:00,VALID,916.131,VALID,0,VALID,100,VALID,0,VALID,19.7682,VALID,277,VALID,0,
2009-02-23, 01:05:00,VALID,916.134,VALID,0,VALID,100,VALID,0,VALID,19.7385,VALID,279,VALID,0,
2009-02-23, 01:06:00,VALID,916.109,VALID,0,VALID,100,VALID,-0.0169808,VALID,19.729,VALID,271,VALID,0,
2009-02-23, 01:07:00,VALID,916.108,VALID,0,VALID,100,VALID,-0.0169808,VALID,19.6936,VALID,287,VALID,0,
2009-02-23, 01:08:00,VALID,916.101,VALID,0,VALID,100,VALID,0,VALID,19.6841,VALID,350,VALID,0,
2009-02-23, 01:09:00,VALID,916.073,VALID,0,VALID,100,VALID,-0.0339617,VALID,19.6768,VALID,350,VALID,0,
2009-02-23, 01:10:00,VALID,916.041,VALID,0,VALID,100,VALID,0,VALID,19.6836,VALID,350,VALID,0,
2009-02-23, 01:11:00,VALID,916.022,VALID,0,VALID,100,VALID,-0.0339617,VALID,19.6514,VALID,350,VALID,0,
2009-02-23, 01:12:00,VALID,915.982,VALID,0,VALID,100,VALID,-0.0509425,VALID,19.6197,VALID,350,VALID,0,
2009-02-23, 01:13:00,VALID,915.976,VALID,0,VALID,100,VALID,-0.0169808,VALID,19.5897,VALID,350,VALID,0,
2009-02-23, 01:14:00,VALID,915.97,VALID,0,VALID,100,VALID,-0.0169808,VALID,19.5733,VALID,350,VALID,0,
2009-02-23, 01:15:00,VALID,915.961,VALID,0,VALID,100,VALID,-0.0509425,VALID,19.5795,VALID,353,VALID,0,
2009-02-23, 01:16:00,VALID,915.965,VALID,0,VALID,100,VALID,0,VALID,19.5665,VALID,30,VALID,0,
2009-02-23, 01:17:00,VALID,915.957,VALID,0,VALID,100,VALID,0,VALID,19.5281,VALID,38,VALID,0,
2009-02-23, 01:18:00,VALID,915.946,VALID,0,VALID,100,VALID,0,VALID,19.4789,VALID,45,VALID,0,
2009-02-23, 01:19:00,VALID,915.935,VALID,0,VALID,100,VALID,-0.0339617,VALID,19.4495,VALID,54,VALID,0,
2009-02-23, 01:20:00,VALID,915.929,VALID,0,VALID,100,VALID,-0.0339617,VALID,19.4532,VALID,54,VALID,0,
2009-02-23, 01:21:00,VALID,915.916,VALID,0,VALID,100,VALID,-0.0339617,VALID,19.4664,VALID,58,VALID,0,
2009-02-23, 01:22:00,VALID,915.89,VALID,0,VALID,100,VALID,-0.0679233,VALID,19.4667,VALID,62,VALID,0,
2009-02-23, 01:23:00,VALID,915.872,VALID,0,VALID,100,VALID,-0.0679233,VALID,19.4734,VALID,62,VALID,0,
2009-02-23, 01:24:00,VALID,915.854,VALID,0,VALID,100,VALID,-0.0339617,VALID,19.4926,VALID,39,VALID,0,
2009-02-23, 01:25:00,VALID,915.831,VALID,0,VALID,100,VALID,-0.0339617,VALID,19.5051,VALID,40,VALID,0,
2009-02-23, 01:26:00,VALID,915.82,VALID,0,VALID,100,VALID,-0.0169808,VALID,19.5091,VALID,50,VALID,0,
2009-02-23, 01:27:00,VALID,915.8,VALID,0,VALID,100,VALID,-0.0169808,VALID,19.4692,VALID,52,VALID,0,
2009-02-23, 01:28:00,VALID,915.786,VALID,0,VALID,100,VALID,0,VALID,19.447,VALID,47,VALID,0,
2009-02-23, 01:29:00,VALID,915.771,VALID,0,VALID,100,VALID,0,VALID,19.3916,VALID,45,VALID,0,
2009-02-23, 01:30:00,VALID,915.755,VALID,0,VALID,100,VALID,-0.0169808,VALID,19.3494,VALID,44,VALID,0,
2009-02-23, 01:31:00,VALID,915.736,VALID,0,VALID,100,VALID,0,VALID,19.3209,VALID,45,VALID,0,
2009-02-23, 01:32:00,VALID,915.697,VALID,0,VALID,100,VALID,-0.0169808,VALID,19.2947,VALID,38,VALID,0,
2009-02-23, 01:33:00,VALID,915.685,VALID,0,VALID,100,VALID,0,VALID,19.285,VALID,42,VALID,0,
2009-02-23, 01:34:00,VALID,915.66,VALID,0,VALID,100,VALID,0,VALID,19.2818,VALID,44,VALID,0,
2009-02-23, 01:35:00,VALID,915.621,VALID,0,VALID,100,VALID,-0.0169808,VALID,19.265,VALID,44,VALID,0,
2009-02-23, 01:36:00,VALID,915.605,VALID,0,VALID,100,VALID,-0.0509425,VALID,19.265,VALID,44,VALID,0,
2009-02-23, 01:37:00,VALID,915.569,VALID,0,VALID,100,VALID,-0.0169808,VALID,19.2908,VALID,44,VALID,0,
2009-02-23, 01:38:00,VALID,915.552,VALID,0,VALID,100,VALID,0,VALID,19.297,VALID,44,VALID,0,
2009-02-23, 01:39:00,VALID,915.527,VALID,0,VALID,100,VALID,-0.0169808,VALID,19.3002,VALID,44,VALID,0,
2009-02-23, 01:40:00,VALID,915.501,VALID,0,VALID,100,VALID,0,VALID,19.3035,VALID,44,VALID,0,
2009-02-23, 01:41:00,VALID,915.478,VALID,0,VALID,100,VALID,0,VALID,19.3132,VALID,44,VALID,0,
2009-02-23, 01:42:00,VALID,915.436,VALID,0,VALID,100,VALID,-0.0169808,VALID,19.3105,VALID,44,VALID,0,
2009-02-23, 01:43:00,VALID,915.424,VALID,0,VALID,100,VALID,0,VALID,19.3065,VALID,44,VALID,0,
2009-02-23, 01:44:00,VALID,915.396,VALID,0,VALID,100,VALID,0,VALID,19.3102,VALID,44,VALID,0,
2009-02-23, 01:45:00,VALID,915.392,VALID,0,VALID,100,VALID,0,VALID,19.3359,VALID,44,VALID,0,
2009-02-23, 01:46:00,VALID,915.367,VALID,0,VALID,100,VALID,-0.0339617,VALID,19.3489,VALID,44,VALID,0,
2009-02-23, 01:47:00,VALID,915.335,VALID,0,VALID,100,VALID,-0.0169808,VALID,19.3724,VALID,44,VALID,0,
2009-02-23, 01:48:00,VALID,915.315,VALID,0,VALID,100,VALID,0,VALID,19.3716,VALID,34,VALID,0,
2009-02-23, 01:49:00,VALID,915.275,VALID,0,VALID,100,VALID,-0.0339617,VALID,19.3424,VALID,35,VALID,0,
2009-02-23, 01:50:00,VALID,915.254,VALID,0,VALID,100,VALID,-0.0169808,VALID,19.3002,VALID,37,VALID,0,
2009-02-23, 01:51:00,VALID,915.23,VALID,0,VALID,100,VALID,-0.0169808,VALID,19.2613,VALID,48,VALID,0,
2009-02-23, 01:52:00,VALID,915.213,VALID,0,VALID,100,VALID,0,VALID,19.2062,VALID,43,VALID,0,
2009-02-23, 01:53:00,VALID,915.21,VALID,0,VALID,100,VALID,-0.0849042,VALID,19.1677,VALID,50,VALID,0,
2009-02-23, 01:54:00,VALID,915.191,VALID,0,VALID,100,VALID,-0.0509425,VALID,19.142,VALID,51,VALID,0,
2009-02-23, 01:55:00,VALID,915.184,VALID,0,VALID,100,VALID,-0.0509425,VALID,19.1056,VALID,51,VALID,0,
2009-02-23, 01:56:00,VALID,915.179,VALID,0,VALID,100,VALID,-0.0169808,VALID,19.0896,VALID,51,VALID,0,
2009-02-23, 01:57:00,VALID,915.161,VALID,0,VALID,100,VALID,0,VALID,19.0704,VALID,51,VALID,0,
2009-02-23, 01:58:00,VALID,915.137,VALID,0,VALID,100,VALID,0,VALID,19.0539,VALID,54,VALID,0,
2009-02-23, 01:59:00,VALID,915.125,VALID,0,VALID,100,VALID,-0.0339617,VALID,19.0315,VALID,57,VALID,0,
2009-02-23, 02:00:00,VALID,915.121,VALID,0,VALID,100,VALID,0,VALID,19.0277,VALID,57,VALID,0,
2009-02-23, 02:01:00,VALID,915.099,VALID,0,VALID,100,VALID,-0.0169808,VALID,19.0018,VALID,61,VALID,0,
2009-02-23, 02:02:00,VALID,915.086,VALID,0,VALID,100,VALID,-0.0339617,VALID,18.9823,VALID,66,VALID,0,
2009-02-23, 02:03:00,VALID,915.073,VALID,0,VALID,100,VALID,-0.0169808,VALID,18.9761,VALID,73,VALID,0,
2009-02-23, 02:04:00,VALID,915.061,VALID,0,VALID,100,VALID,-0.0169808,VALID,18.9664,VALID,74,VALID,0,
2009-02-23, 02:05:00,VALID,915.052,VALID,0,VALID,100,VALID,-0.0339617,VALID,18.9531,VALID,92,VALID,0,
2009-02-23, 02:06:00,VALID,915.035,VALID,0,VALID,100,VALID,0,VALID,18.9471,VALID,128,VALID,0,
2009-02-23, 02:07:00,VALID,915.034,VALID,0,VALID,100,VALID,-0.0169808,VALID,18.9304,VALID,128,VALID,0,
2009-02-23, 02:08:00,VALID,915.025,VALID,0,VALID,100,VALID,-0.0169808,VALID,18.9304,VALID,128,VALID,0,
2009-02-23, 02:09:00,VALID,915.023,VALID,0,VALID,100,VALID,-0.0169808,VALID,18.9144,VALID,128,VALID,0,
2009-02-23, 02:10:00,VALID,915.007,VALID,0,VALID,100,VALID,-0.0169808,VALID,18.9142,VALID,128,VALID,0,
2009-02-23, 02:11:00,VALID,915.002,VALID,0,VALID,100,VALID,0.0169808,VALID,18.901,VALID,128,VALID,0,
2009-02-23, 02:12:00,VALID,914.987,VALID,0,VALID,100,VALID,-0.0169808,VALID,18.9045,VALID,128,VALID,0,
2009-02-23, 02:13:00,VALID,914.97,VALID,0,VALID,100,VALID,-0.0169808,VALID,18.9144,VALID,130,VALID,0,
2009-02-23, 02:14:00,VALID,914.96,VALID,0,VALID,100,VALID,0,VALID,18.9077,VALID,131,VALID,0,
2009-02-23, 02:15:00,VALID,914.944,VALID,0,VALID,100,VALID,-0.0169808,VALID,18.9244,VALID,142,VALID,0,
2009-02-23, 02:16:00,VALID,914.925,VALID,0,VALID,100,VALID,-0.0339617,VALID,18.9274,VALID,137,VALID,0,
2009-02-23, 02:17:00,VALID,914.92,VALID,0,VALID,100,VALID,0,VALID,18.9434,VALID,124,VALID,0,
2009-02-23, 02:18:00,VALID,914.905,VALID,0,VALID,100,VALID,-0.0509425,VALID,18.9342,VALID,124,VALID,0,
2009-02-23, 02:19:00,VALID,914.911,VALID,0,VALID,100,VALID,-0.0169808,VALID,18.9242,VALID,124,VALID,0,
2009-02-23, 02:20:00,VALID,914.901,VALID,0,VALID,100,VALID,-0.0339617,VALID,18.9277,VALID,124,VALID,0,
2009-02-23, 02:21:00,VALID,914.9,VALID,0,VALID,100,VALID,-0.0339617,VALID,18.9244,VALID,124,VALID,0,
2009-02-23, 02:22:00,VALID,914.885,VALID,0,VALID,100,VALID,0,VALID,18.9304,VALID,124,VALID,0,
2009-02-23, 02:23:00,VALID,914.881,VALID,0,VALID,100,VALID,-0.0169808,VALID,18.9409,VALID,124,VALID,0,
2009-02-23, 02:24:00,VALID,914.876,VALID,0,VALID,100,VALID,-0.0509425,VALID,18.9471,VALID,124,VALID,0,
2009-02-23, 02:25:00,VALID,914.862,VALID,0,VALID,100,VALID,-0.0169808,VALID,18.9439,VALID,124,VALID,0,
2009-02-23, 02:26:00,VALID,914.852,VALID,0,VALID,100,VALID,0,VALID,18.9376,VALID,124,VALID,0,
2009-02-23, 02:27:00,VALID,914.841,VALID,0,VALID,100,VALID,-0.0509425,VALID,18.9015,VALID,123,VALID,0,
2009-02-23, 02:28:00,VALID,914.834,VALID,0,VALID,100,VALID,0,VALID,18.8785,VALID,115,VALID,0,
2009-02-23, 02:29:00,VALID,914.848,VALID,0,VALID,100,VALID,-0.0169808,VALID,18.8625,VALID,84,VALID,0,
2009-02-23, 02:30:00,VALID,914.844,VALID,0,VALID,100,VALID,-0.0169808,VALID,18.8593,VALID,84,VALID,0,
2009-02-23, 02:31:00,VALID,914.837,VALID,0,VALID,100,VALID,0,VALID,18.8523,VALID,84,VALID,0,
2009-02-23, 02:32:00,VALID,914.832,VALID,0,VALID,100,VALID,-0.0169808,VALID,18.8528,VALID,84,VALID,0,
2009-02-23, 02:33:00,VALID,914.808,VALID,0,VALID,100,VALID,-0.0169808,VALID,18.8498,VALID,84,VALID,0,
2009-02-23, 02:34:00,VALID,914.789,VALID,0,VALID,100,VALID,0,VALID,18.8366,VALID,84,VALID,0,
2009-02-23, 02:35:00,VALID,914.761,VALID,0,VALID,100,VALID,-0.0169808,VALID,18.8428,VALID,84,VALID,0,
2009-02-23, 02:36:00,VALID,914.761,VALID,0,VALID,100,VALID,0,VALID,18.8493,VALID,84,VALID,0,
2009-02-23, 02:37:00,VALID,914.737,VALID,0,VALID,100,VALID,-0.0339617,VALID,18.8591,VALID,84,VALID,0,
2009-02-23, 02:38:00,VALID,914.735,VALID,0,VALID,100,VALID,0,VALID,18.8558,VALID,84,VALID,0,
2009-02-23, 02:39:00,VALID,914.723,VALID,0,VALID,100,VALID,-0.0339617,VALID,18.8591,VALID,84,VALID,0,
2009-02-23, 02:40:00,VALID,914.707,VALID,0,VALID,100,VALID,-0.0169808,VALID,18.8398,VALID,84,VALID,0,
2009-02-23, 02:41:00,VALID,914.686,VALID,0,VALID,100,VALID,-0.0509425,VALID,18.8137,VALID,84,VALID,0,
2009-02-23, 02:42:00,VALID,914.665,VALID,0,VALID,100,VALID,-0.0169808,VALID,18.8039,VALID,84,VALID,0,
2009-02-23, 02:43:00,VALID,914.646,VALID,0,VALID,100,VALID,-0.0169808,VALID,18.7974,VALID,84,VALID,0,
2009-02-23, 02:44:00,VALID,914.64,VALID,0,VALID,100,VALID,-0.0509425,VALID,18.7812,VALID,107,VALID,0,
2009-02-23, 02:45:00,VALID,914.641,VALID,0,VALID,100,VALID,-0.0169808,VALID,18.7815,VALID,126,VALID,0,
2009-02-23, 02:46:00,VALID,914.644,VALID,0,VALID,100,VALID,0,VALID,18.7712,VALID,126,VALID,0,
2009-02-23, 02:47:00,VALID,914.631,VALID,0,VALID,100,VALID,-0.0169808,VALID,18.7648,VALID,137,VALID,0,
2009-02-23, 02:48:00,VALID,914.638,VALID,0,VALID,100,VALID,-0.0169808,VALID,18.7745,VALID,153,VALID,0,
2009-02-23, 02:49:00,VALID,914.634,VALID,0,VALID,100,VALID,-0.0509425,VALID,18.7879,VALID,164,VALID,0,
2009-02-23, 02:50:00,VALID,914.644,VALID,0,VALID,100,VALID,-0.0339617,VALID,18.7914,VALID,164,VALID,0,
2009-02-23, 02:51:00,VALID,914.638,VALID,0,VALID,100,VALID,-0.0339617,VALID,18.8104,VALID,164,VALID,0,
2009-02-23, 02:52:00,VALID,914.626,VALID,0,VALID,100,VALID,0,VALID,18.8431,VALID,164,VALID,0,
2009-02-23, 02:53:00,VALID,914.625,VALID,0,VALID,100,VALID,-0.0509425,VALID,18.8558,VALID,164,VALID,0,
2009-02-23, 02:54:00,VALID,914.62,VALID,0,VALID,100,VALID,-0.0169808,VALID,18.8788,VALID,164,VALID,0,
2009-02-23, 02:55:00,VALID,914.604,VALID,0,VALID,100,VALID,0,VALID,18.8947,VALID,164,VALID,0,
2009-02-23, 02:56:00,VALID,914.584,VALID,0,VALID,100,VALID,0,VALID,18.9175,VALID,163,VALID,0,
2009-02-23, 02:57:00,VALID,914.589,VALID,0,VALID,100,VALID,-0.0509425,VALID,18.9369,VALID,164,VALID,0,
2009-02-23, 02:58:00,VALID,914.576,VALID,0,VALID,100,VALID,-0.0339617,VALID,18.9436,VALID,164,VALID,0,
2009-02-23, 02:59:00,VALID,914.576,VALID,0,VALID,100,VALID,0,VALID,18.9404,VALID,164,VALID,0,
2009-02-23, 03:00:00,VALID,914.578,VALID,0,VALID,100,VALID,-0.0339617,VALID,18.9239,VALID,164,VALID,0,
2009-02-23, 03:01:00,VALID,914.578,VALID,0,VALID,100,VALID,-0.0169808,VALID,18.9304,VALID,164,VALID,0,
2009-02-23, 03:02:00,VALID,914.577,VALID,0,VALID,100,VALID,-0.0169808,VALID,18.9372,VALID,164,VALID,0,
2009-02-23, 03:03:00,VALID,914.592,VALID,0,VALID,100,VALID,0,VALID,18.9045,VALID,164,VALID,0,
2009-02-23, 03:04:00,VALID,914.589,VALID,0,VALID,100,VALID,-0.0169808,VALID,18.8528,VALID,164,VALID,0,
2009-02-23, 03:05:00,VALID,914.597,VALID,0,VALID,100,VALID,-0.0169808,VALID,18.8104,VALID,164,VALID,0,
2009-02-23, 03:06:00,VALID,914.594,VALID,0,VALID,100,VALID,-0.0509425,VALID,18.7909,VALID,164,VALID,0,
2009-02-23, 03:07:00,VALID,914.609,VALID,0,VALID,100,VALID,0.0169808,VALID,18.7877,VALID,164,VALID,0,
2009-02-23, 03:08:00,VALID,914.608,VALID,0,VALID,100,VALID,0,VALID,18.7745,VALID,164,VALID,0,
2009-02-23, 03:09:00,VALID,914.609,VALID,0,VALID,100,VALID,0,VALID,18.7812,VALID,164,VALID,0,
2009-02-23, 03:10:00,VALID,914.621,VALID,0,VALID,100,VALID,-0.0169808,VALID,18.7847,VALID,164,VALID,0,
2009-02-23, 03:11:00,VALID,914.623,VALID,0,VALID,100,VALID,-0.0339617,VALID,18.7912,VALID,164,VALID,0,
2009-02-23, 03:12:00,VALID,914.631,VALID,0,VALID,100,VALID,-0.0169808,VALID,18.8007,VALID,164,VALID,0,
2009-02-23, 03:13:00,VALID,914.635,VALID,0,VALID,100,VALID,0,VALID,18.8239,VALID,164,VALID,0,
2009-02-23, 03:14:00,VALID,914.634,VALID,0,VALID,100,VALID,-0.0169808,VALID,18.8264,VALID,164,VALID,0,
2009-02-23, 03:15:00,VALID,914.625,VALID,0,VALID,100,VALID,-0.0339617,VALID,18.8167,VALID,164,VALID,0,
2009-02-23, 03:16:00,VALID,914.61,VALID,0,VALID,100,VALID,0,VALID,18.8269,VALID,164,VALID,0,
2009-02-23, 03:17:00,VALID,914.607,VALID,0,VALID,100,VALID,-0.0339617,VALID,18.8266,VALID,164,VALID,0,
2009-02-23, 03:18:00,VALID,914.618,VALID,0,VALID,100,VALID,-0.0169808,VALID,18.8234,VALID,164,VALID,0,
2009-02-23, 03:19:00,VALID,914.63,VALID,0,VALID,100,VALID,0,VALID,18.8201,VALID,164,VALID,0,
2009-02-23, 03:20:00,VALID,914.665,VALID,0,VALID,100,VALID,-0.0169808,VALID,18.7974,VALID,164,VALID,0,
2009-02-23, 03:21:00,VALID,914.674,VALID,0,VALID,100,VALID,-0.0339617,VALID,18.7845,VALID,164,VALID,0,
2009-02-23, 03:22:00,VALID,914.707,VALID,0,VALID,100,VALID,-0.0169808,VALID,18.7488,VALID,164,VALID,0,
2009-02-23, 03:23:00,VALID,914.717,VALID,0,VALID,100,VALID,-0.0169808,VALID,18.7101,VALID,162,VALID,0,
2009-02-23, 03:24:00,VALID,914.739,VALID,0,VALID,100,VALID,-0.0339617,VALID,18.7099,VALID,80,VALID,0,
2009-02-23, 03:25:00,VALID,914.755,VALID,0,VALID,100,VALID,-0.0509425,VALID,18.6874,VALID,62,VALID,0,
2009-02-23, 03:26:00,VALID,914.763,VALID,0,VALID,100,VALID,-0.0679233,VALID,18.622,VALID,43,VALID,0,
2009-02-23, 03:27:00,VALID,914.78,VALID,0,VALID,100,VALID,-0.0339617,VALID,18.5933,VALID,42,VALID,0,
2009-02-23, 03:28:00,VALID,914.788,VALID,0,VALID,100,VALID,-0.0339617,VALID,18.5898,VALID,30,VALID,0,
2009-02-23, 03:29:00,VALID,914.804,VALID,0,VALID,100,VALID,-0.0339617,VALID,18.5938,VALID,29,VALID,0,
2009-02-23, 03:30:00,VALID,914.799,VALID,0,VALID,100,VALID,0,VALID,18.5669,VALID,33,VALID,0,
2009-02-23, 03:31:00,VALID,914.799,VALID,0,VALID,100,VALID,-0.0169808,VALID,18.5801,VALID,32,VALID,0,
2009-02-23, 03:32:00,VALID,914.793,VALID,0,VALID,100,VALID,0,VALID,18.5898,VALID,15,VALID,0.0226563,
2009-02-23, 03:33:00,VALID,914.799,VALID,0,VALID,100,VALID,-0.0679233,VALID,18.6258,VALID,14,VALID,0.0737424,
2009-02-23, 03:34:00,VALID,914.785,VALID,0,VALID,100,VALID,-0.0679233,VALID,18.6357,VALID,12,VALID,0.0472656,
2009-02-23, 03:35:00,VALID,914.79,VALID,0,VALID,100,VALID,-0.0339617,VALID,18.632,VALID,23,VALID,0.00628811,
2009-02-23, 03:36:00,VALID,914.79,VALID,0,VALID,100,VALID,0,VALID,18.6413,VALID,24,VALID,0,
2009-02-23, 03:37:00,VALID,914.791,VALID,0,VALID,100,VALID,0,VALID,18.6515,VALID,36,VALID,0,
2009-02-23, 03:38:00,VALID,914.804,VALID,0,VALID,100,VALID,-0.0339617,VALID,18.6288,VALID,35,VALID,0,
2009-02-23, 03:39:00,VALID,914.825,VALID,0,VALID,100,VALID,0,VALID,18.6355,VALID,30,VALID,0,
2009-02-23, 03:40:00,VALID,914.851,VALID,0,VALID,100,VALID,-0.0339617,VALID,18.6517,VALID,3,VALID,0,
2009-02-23, 03:41:00,VALID,914.869,VALID,0,VALID,100,VALID,0,VALID,18.6647,VALID,340,VALID,0,
2009-02-23, 03:42:00,VALID,914.87,VALID,0,VALID,100,VALID,0,VALID,18.6811,VALID,335,VALID,0,
2009-02-23, 03:43:00,VALID,914.873,VALID,0,VALID,100,VALID,0,VALID,18.6744,VALID,8,VALID,0,
2009-02-23, 03:44:00,VALID,914.846,VALID,0,VALID,100,VALID,-0.0169808,VALID,18.6742,VALID,55,VALID,0,
2009-02-23, 03:45:00,VALID,914.855,VALID,0,VALID,100,VALID,-0.0339617,VALID,18.6774,VALID,59,VALID,0,
2009-02-23, 03:46:00,VALID,914.868,VALID,0,VALID,100,VALID,-0.0339617,VALID,18.6839,VALID,20,VALID,0,
2009-02-23, 03:47:00,VALID,914.878,VALID,0,VALID,100,VALID,-0.0509425,VALID,18.7103,VALID,2,VALID,0,
2009-02-23, 03:48:00,VALID,914.868,VALID,0,VALID,100,VALID,-0.0169808,VALID,18.6904,VALID,7,VALID,0,
2009-02-23, 03:49:00,VALID,914.859,VALID,0,VALID,100,VALID,-0.0339617,VALID,18.6906,VALID,19,VALID,0,
2009-02-23, 03:50:00,VALID,914.858,VALID,0,VALID,100,VALID,-0.0169808,VALID,18.6876,VALID,20,VALID,0,
2009-02-23, 03:51:00,VALID,914.863,VALID,0,VALID,100,VALID,-0.0169808,VALID,18.6904,VALID,40,VALID,0,
2009-02-23, 03:52:00,VALID,914.869,VALID,0,VALID,100,VALID,-0.0169808,VALID,18.6904,VALID,31,VALID,0,